VJT537 KLAX-MMTO

Flight info

Callsign VJT537
Flight time 2h 54m
Altitude 39000
Route PNDAH2 OTAYY DCT TIJ UT18 GOLFO UQ103 AGU UT127 ITLAS ITLAS2A
Aircraft CL60/M-SBDE1E2E3FGHIJ1J4J5J7M3RWXYZ/LB1V1D1

Departure

Time 2026-04-22 22:18
Airport Los Angeles International Airport (KLAX)

Arrival

Time 2026-04-23 01:12
Airport Adolfo López Mateos International Airport (MMTO)
Time Latitude Longitude Altitude Speed Heading
2026-04-22 21:47 33.93265 -118.39916 121 ft 0 kts 83°
2026-04-22 22:11 33.93269 -118.39898 120 ft 6 kts 63°
2026-04-22 22:11 33.93308 -118.39890 118 ft 5 kts 352°
2026-04-22 22:11 33.93352 -118.39858 116 ft 11 kts 75°
2026-04-22 22:12 33.93373 -118.39819 115 ft 6 kts 25°
2026-04-22 22:12 33.93391 -118.39813 115 ft 0 kts
2026-04-22 22:12 33.93392 -118.39813 115 ft 0 kts
2026-04-22 22:13 33.93412 -118.39814 115 ft 7 kts 356°
2026-04-22 22:13 33.93463 -118.39764 115 ft 16 kts 85°
2026-04-22 22:13 33.93478 -118.39596 112 ft 19 kts 81°
2026-04-22 22:14 33.93496 -118.39433 110 ft 16 kts 84°
2026-04-22 22:14 33.93513 -118.39262 109 ft 23 kts 82°
2026-04-22 22:14 33.93529 -118.39101 108 ft 19 kts 83°
2026-04-22 22:14 33.93547 -118.38920 106 ft 18 kts 83°
2026-04-22 22:15 33.93564 -118.38766 106 ft 16 kts 84°
2026-04-22 22:15 33.93577 -118.38615 105 ft 14 kts 80°
2026-04-22 22:15 33.93593 -118.38468 104 ft 19 kts 84°
2026-04-22 22:15 33.93605 -118.38351 104 ft 0 kts 83°
2026-04-22 22:16 33.93608 -118.38327 103 ft 0 kts 81°
2026-04-22 22:16 33.93610 -118.38311 103 ft 0 kts 72°
2026-04-22 22:16 33.93613 -118.38303 103 ft 0 kts 61°
2026-04-22 22:16 33.93615 -118.38300 103 ft 2 kts 52°
2026-04-22 22:17 33.93641 -118.38281 103 ft 6 kts 13°
2026-04-22 22:17 33.93698 -118.38285 103 ft 9 kts 348°
2026-04-22 22:17 33.93727 -118.38330 104 ft 3 kts 270°
2026-04-22 22:17 33.93727 -118.38345 104 ft 14 kts 267°
2026-04-22 22:18 33.93678 -118.38839 106 ft 106 kts 264°
2026-04-22 22:18 33.93544 -118.40003 300 ft 164 kts 261°
2026-04-22 22:18 33.93388 -118.41454 999 ft 185 kts 262°
2026-04-22 22:18 33.93234 -118.43069 1789 ft 204 kts 264°
2026-04-22 22:19 33.93038 -118.44741 2581 ft 203 kts 261°
2026-04-22 22:19 33.92575 -118.46423 3389 ft 226 kts 240°
2026-04-22 22:19 33.91561 -118.47912 4397 ft 242 kts 233°
2026-04-22 22:19 33.90459 -118.49503 5271 ft 263 kts 232°
2026-04-22 22:20 33.89217 -118.51248 5456 ft 266 kts 235°
2026-04-22 22:20 33.88089 -118.53034 5332 ft 272 kts 235°
2026-04-22 22:20 33.86679 -118.54733 5673 ft 301 kts 215°
2026-04-22 22:20 33.84758 -118.55634 7141 ft 303 kts 192°
2026-04-22 22:21 33.82735 -118.55605 8731 ft 298 kts 174°
2026-04-22 22:21 33.80713 -118.55086 9966 ft 301 kts 172°
2026-04-22 22:21 33.78672 -118.54531 11080 ft 307 kts 173°
2026-04-22 22:21 33.76590 -118.53969 12120 ft 313 kts 173°
2026-04-22 22:22 33.74449 -118.53391 13192 ft 317 kts 174°
2026-04-22 22:22 33.72287 -118.52743 14225 ft 325 kts 167°
2026-04-22 22:22 33.70255 -118.51495 15207 ft 339 kts 149°
2026-04-22 22:22 33.68600 -118.49434 16097 ft 354 kts 126°
2026-04-22 22:23 33.67411 -118.46819 16901 ft 363 kts 120°
2026-04-22 22:23 33.66259 -118.44134 17713 ft 369 kts 121°
2026-04-22 22:23 33.65070 -118.41376 18584 ft 372 kts 121°
2026-04-22 22:23 33.63884 -118.38633 19332 ft 378 kts 121°
2026-04-22 22:24 33.62667 -118.35814 20078 ft 383 kts 122°
2026-04-22 22:24 33.61440 -118.32974 20865 ft 386 kts 122°
2026-04-22 22:24 33.60200 -118.30108 21549 ft 391 kts 122°
2026-04-22 22:24 33.58948 -118.27215 22222 ft 396 kts 122°
2026-04-22 22:25 33.57678 -118.24282 22950 ft 399 kts 122°
2026-04-22 22:25 33.56398 -118.21326 23610 ft 404 kts 122°
2026-04-22 22:25 33.55085 -118.18300 24295 ft 408 kts 122°
2026-04-22 22:25 33.53792 -118.15318 24966 ft 411 kts 122°
2026-04-22 22:26 33.52468 -118.12250 25524 ft 418 kts 122°
2026-04-22 22:26 33.51124 -118.09131 26112 ft 423 kts 122°
2026-04-22 22:26 33.49775 -118.06003 26672 ft 427 kts 122°
2026-04-22 22:26 33.48402 -118.02819 27269 ft 431 kts 122°
2026-04-22 22:27 33.46955 -117.99685 27825 ft 429 kts 130°
2026-04-22 22:27 33.44996 -117.97070 28309 ft 421 kts 146°
2026-04-22 22:27 33.42782 -117.94745 28739 ft 426 kts 146°
2026-04-22 22:27 33.40571 -117.92413 29244 ft 429 kts 146°
2026-04-22 22:28 33.38319 -117.90034 29699 ft 433 kts 146°
2026-04-22 22:28 33.36051 -117.87639 30192 ft 435 kts 147°
2026-04-22 22:28 33.33781 -117.85242 30632 ft 438 kts 147°
2026-04-22 22:28 33.31484 -117.82817 31017 ft 442 kts 147°
2026-04-22 22:29 33.29182 -117.80389 31377 ft 447 kts 148°
2026-04-22 22:29 33.26838 -117.77917 31731 ft 451 kts 148°
2026-04-22 22:29 33.24443 -117.75393 32062 ft 456 kts 148°
2026-04-22 22:29 33.22070 -117.72893 32398 ft 459 kts 148°
2026-04-22 22:30 33.19655 -117.70348 32788 ft 461 kts 148°
2026-04-22 22:30 33.17248 -117.67815 33018 ft 467 kts 148°
2026-04-22 22:30 33.14819 -117.65190 33348 ft 472 kts 147°
2026-04-22 22:30 33.12434 -117.62533 33644 ft 476 kts 147°
2026-04-22 22:31 33.09998 -117.59824 33931 ft 479 kts 147°
2026-04-22 22:31 33.07562 -117.57116 34257 ft 482 kts 147°
2026-04-22 22:31 33.05098 -117.54376 34706 ft 481 kts 147°
2026-04-22 22:31 33.02660 -117.51666 35157 ft 480 kts 147°
2026-04-22 22:32 33.00216 -117.48951 35594 ft 478 kts 147°
2026-04-22 22:32 32.97824 -117.46295 36107 ft 475 kts 147°
2026-04-22 22:32 32.95391 -117.43598 36470 ft 475 kts 147°
2026-04-22 22:32 32.92971 -117.40919 36888 ft 473 kts 147°
2026-04-22 22:33 32.90553 -117.38242 37230 ft 473 kts 147°
2026-04-22 22:33 32.88166 -117.35603 37618 ft 472 kts 147°
2026-04-22 22:33 32.85743 -117.32925 38074 ft 467 kts 148°
2026-04-22 22:33 32.83381 -117.30314 38437 ft 466 kts 147°
2026-04-22 22:34 32.80995 -117.27685 38659 ft 466 kts 147°
2026-04-22 22:34 32.78618 -117.25066 38945 ft 464 kts 147°
2026-04-22 22:34 32.76271 -117.22481 39144 ft 465 kts 147°
2026-04-22 22:35 32.71479 -117.17219 39126 ft 470 kts 147°
2026-04-22 22:35 32.66691 -117.11942 39130 ft 469 kts 146°
2026-04-22 22:36 32.62236 -117.06220 39133 ft 472 kts 141°
2026-04-22 22:36 32.57839 -117.00441 39131 ft 472 kts 141°
2026-04-22 22:37 32.53555 -116.94534 39147 ft 480 kts 133°
2026-04-22 22:37 32.49896 -116.87851 39129 ft 486 kts 130°
2026-04-22 22:38 32.46199 -116.81046 39131 ft 496 kts 130°
2026-04-22 22:38 32.42440 -116.74135 39134 ft 504 kts 130°
2026-04-22 22:39 32.38616 -116.67119 39112 ft 512 kts 130°
2026-04-22 22:39 32.34707 -116.59954 39109 ft 518 kts 130°
2026-04-22 22:40 32.30801 -116.52808 39116 ft 521 kts 130°
2026-04-22 22:40 32.26879 -116.45641 39118 ft 520 kts 129°
2026-04-22 22:41 32.22939 -116.38449 39122 ft 519 kts 129°
2026-04-22 22:41 32.19040 -116.31341 39150 ft 518 kts 130°
2026-04-22 22:42 32.15104 -116.24182 39146 ft 517 kts 130°
2026-04-22 22:42 32.11192 -116.17082 39159 ft 517 kts 130°
2026-04-22 22:43 32.07292 -116.10016 39164 ft 517 kts 130°
2026-04-22 22:43 32.03372 -116.02925 39164 ft 516 kts 130°
2026-04-22 22:44 31.99452 -115.95850 39160 ft 515 kts 130°
2026-04-22 22:44 31.95533 -115.88787 39165 ft 513 kts 130°
2026-04-22 22:45 31.91618 -115.81747 39150 ft 514 kts 130°
2026-04-22 22:45 31.87704 -115.74731 39111 ft 517 kts 130°
2026-04-22 22:46 31.83759 -115.67667 39130 ft 519 kts 130°
2026-04-22 22:46 31.79785 -115.60566 39111 ft 518 kts 130°
2026-04-22 22:47 31.75830 -115.53509 39075 ft 517 kts 130°
2026-04-22 22:47 31.71873 -115.46465 39054 ft 518 kts 129°
2026-04-22 22:48 31.67924 -115.39446 39051 ft 519 kts 130°
2026-04-22 22:48 31.63948 -115.32391 39023 ft 518 kts 130°
2026-04-22 22:49 31.59969 -115.25346 39022 ft 518 kts 130°
2026-04-22 22:49 31.55996 -115.18323 39011 ft 518 kts 130°
2026-04-22 22:50 31.51993 -115.11261 38997 ft 518 kts 130°
2026-04-22 22:50 31.48023 -115.04270 38965 ft 518 kts 130°
2026-04-22 22:51 31.44029 -114.97250 38941 ft 519 kts 130°
2026-04-22 22:51 31.40020 -114.90216 38945 ft 519 kts 130°
2026-04-22 22:52 31.36021 -114.83211 38944 ft 519 kts 130°
2026-04-22 22:52 31.32020 -114.76216 38942 ft 519 kts 130°
2026-04-22 22:53 31.27999 -114.69198 38945 ft 519 kts 130°
2026-04-22 22:53 31.23999 -114.62228 38945 ft 519 kts 130°
2026-04-22 22:54 31.19951 -114.55190 38942 ft 520 kts 130°
2026-04-22 22:54 31.15923 -114.48196 38945 ft 520 kts 130°
2026-04-22 22:55 31.11916 -114.41254 38947 ft 520 kts 130°
2026-04-22 22:55 31.05786 -114.30806 38944 ft 516 kts 134°
2026-04-22 22:56 31.01394 -114.24287 38950 ft 514 kts 136°
2026-04-22 22:56 30.96940 -114.17735 38945 ft 515 kts 136°
2026-04-22 22:57 30.92492 -114.11193 38945 ft 517 kts 136°
2026-04-22 22:57 30.88012 -114.04606 38950 ft 518 kts 135°
2026-04-22 22:58 30.83567 -113.98077 38950 ft 518 kts 136°
2026-04-22 22:58 30.79083 -113.91496 38945 ft 519 kts 135°
2026-04-22 22:59 30.74602 -113.84929 38953 ft 519 kts 136°
2026-04-22 22:59 30.70129 -113.78380 38947 ft 518 kts 136°
2026-04-22 23:00 30.65677 -113.71870 38953 ft 517 kts 135°
2026-04-22 23:00 30.61190 -113.65321 38948 ft 518 kts 135°
2026-04-22 23:01 30.56711 -113.58794 38953 ft 518 kts 136°
2026-04-22 23:01 30.52222 -113.52261 38953 ft 518 kts 136°
2026-04-22 23:02 30.47745 -113.45757 38957 ft 518 kts 136°
2026-04-22 23:02 30.43258 -113.39247 38953 ft 518 kts 135°
2026-04-22 23:03 30.38748 -113.32715 38951 ft 518 kts 136°
2026-04-22 23:03 30.34263 -113.26229 38960 ft 517 kts 136°
2026-04-22 23:04 30.29771 -113.19743 38953 ft 517 kts 136°
2026-04-22 23:04 30.25255 -113.13232 38960 ft 518 kts 136°
2026-04-22 23:05 30.20767 -113.06775 38957 ft 519 kts 136°
2026-04-22 23:05 30.16234 -113.00262 38962 ft 519 kts 136°
2026-04-22 23:06 30.11735 -112.93807 38967 ft 518 kts 136°
2026-04-22 23:06 30.07209 -112.87324 38969 ft 518 kts 136°
2026-04-22 23:07 30.02708 -112.80887 38963 ft 518 kts 135°
2026-04-22 23:07 29.98180 -112.74423 38969 ft 517 kts 135°
2026-04-22 23:08 29.93656 -112.67974 38976 ft 517 kts 135°
2026-04-22 23:08 29.89126 -112.61527 38990 ft 517 kts 135°
2026-04-22 23:09 29.84601 -112.55098 38996 ft 518 kts 135°
2026-04-22 23:09 29.80054 -112.48648 39000 ft 518 kts 135°
2026-04-22 23:10 29.75501 -112.42200 38998 ft 518 kts 135°
2026-04-22 23:10 29.70986 -112.35814 38994 ft 518 kts 135°
2026-04-22 23:11 29.66422 -112.29370 39000 ft 517 kts 135°
2026-04-22 23:11 29.61882 -112.22971 38998 ft 517 kts 135°
2026-04-22 23:12 29.57326 -112.16559 39002 ft 517 kts 135°
2026-04-22 23:12 29.52792 -112.10189 39004 ft 517 kts 136°
2026-04-22 23:13 29.48257 -112.03827 38995 ft 517 kts 135°
2026-04-22 23:13 29.43709 -111.97456 38987 ft 517 kts 135°
2026-04-22 23:14 29.39134 -111.91058 38977 ft 517 kts 135°
2026-04-22 23:14 29.34578 -111.84697 38970 ft 517 kts 135°
2026-04-22 23:15 29.30033 -111.78361 38959 ft 516 kts 135°
2026-04-22 23:15 29.25477 -111.72020 38954 ft 516 kts 135°
2026-04-22 23:16 29.20906 -111.65668 38952 ft 516 kts 135°
2026-04-22 23:16 29.16354 -111.59352 38957 ft 516 kts 135°
2026-04-22 23:17 29.11755 -111.52981 38958 ft 517 kts 135°
2026-04-22 23:17 29.07183 -111.46658 38953 ft 518 kts 135°
2026-04-22 23:18 29.02603 -111.40332 38954 ft 517 kts 135°
2026-04-22 23:18 28.98020 -111.34013 38948 ft 517 kts 135°
2026-04-22 23:19 28.93435 -111.27699 38948 ft 516 kts 135°
2026-04-22 23:19 28.88846 -111.21392 38951 ft 516 kts 135°
2026-04-22 23:20 28.84259 -111.15097 38946 ft 516 kts 135°
2026-04-22 23:20 28.79697 -111.08845 38958 ft 517 kts 135°
2026-04-22 23:21 28.75102 -111.02558 38963 ft 517 kts 135°
2026-04-22 23:21 28.70489 -110.96257 38977 ft 517 kts 135°
2026-04-22 23:22 28.65897 -110.89995 38984 ft 517 kts 134°
2026-04-22 23:22 28.61273 -110.83697 38984 ft 517 kts 135°
2026-04-22 23:23 28.56671 -110.77441 38979 ft 518 kts 134°
2026-04-22 23:23 28.52063 -110.71186 38975 ft 518 kts 134°
2026-04-22 23:24 28.47430 -110.64905 38973 ft 517 kts 135°
2026-04-22 23:24 28.42820 -110.58667 38975 ft 518 kts 134°
2026-04-22 23:25 28.38185 -110.52404 38973 ft 519 kts 134°
2026-04-22 23:25 28.33528 -110.46121 38970 ft 521 kts 135°
2026-04-22 23:26 28.28871 -110.39845 38971 ft 521 kts 134°
2026-04-22 23:26 28.24195 -110.33555 38974 ft 519 kts 135°
2026-04-22 23:27 28.19538 -110.27298 38977 ft 519 kts 135°
2026-04-22 23:27 28.14902 -110.21081 38973 ft 519 kts 134°
2026-04-22 23:28 28.10232 -110.14826 38968 ft 520 kts 134°
2026-04-22 23:28 28.05535 -110.08546 38963 ft 521 kts 134°
2026-04-22 23:29 28.00867 -110.02312 38959 ft 521 kts 134°
2026-04-22 23:29 27.96178 -109.96061 38957 ft 521 kts 134°
2026-04-22 23:30 27.91485 -109.89812 38956 ft 520 kts 134°
2026-04-22 23:30 27.86790 -109.83572 38970 ft 520 kts 134°
2026-04-22 23:31 27.82099 -109.77344 38971 ft 520 kts 134°
2026-04-22 23:31 27.77392 -109.71106 38987 ft 520 kts 134°
2026-04-22 23:32 27.72698 -109.64894 39005 ft 520 kts 134°
2026-04-22 23:32 27.68008 -109.58696 39004 ft 520 kts 134°
2026-04-22 23:33 27.63321 -109.52512 39009 ft 520 kts 134°
2026-04-22 23:33 27.58634 -109.46335 39008 ft 520 kts 134°
2026-04-22 23:34 27.53934 -109.40151 38991 ft 520 kts 134°
2026-04-22 23:34 27.49199 -109.33930 38979 ft 520 kts 134°
2026-04-22 23:35 27.44510 -109.27779 38971 ft 520 kts 134°
2026-04-22 23:35 27.39809 -109.21620 38982 ft 520 kts 134°
2026-04-22 23:36 27.35105 -109.15467 38992 ft 520 kts 134°
2026-04-22 23:36 27.30377 -109.09291 38991 ft 520 kts 134°
2026-04-22 23:37 27.25682 -109.03167 38968 ft 519 kts 134°
2026-04-22 23:37 27.20961 -108.97017 39009 ft 518 kts 134°
2026-04-22 23:38 27.16269 -108.90914 39037 ft 519 kts 134°
2026-04-22 23:38 27.11524 -108.84752 39046 ft 521 kts 134°
2026-04-22 23:39 27.06777 -108.78595 39051 ft 521 kts 134°
2026-04-22 23:39 27.02041 -108.72462 39026 ft 521 kts 134°
2026-04-22 23:40 26.97296 -108.66324 39013 ft 520 kts 134°
2026-04-22 23:40 26.92545 -108.60188 39016 ft 520 kts 133°
2026-04-22 23:41 26.87805 -108.54075 39003 ft 520 kts 133°
2026-04-22 23:41 26.83033 -108.47929 38991 ft 520 kts 134°
2026-04-22 23:42 26.78286 -108.41823 38998 ft 520 kts 134°
2026-04-22 23:42 26.73525 -108.35709 38998 ft 521 kts 133°
2026-04-22 23:43 26.68769 -108.29610 39032 ft 520 kts 134°
2026-04-22 23:43 26.64036 -108.23548 39062 ft 520 kts 134°
2026-04-22 23:44 26.59256 -108.17435 39105 ft 521 kts 134°
2026-04-22 23:44 26.54447 -108.11294 39123 ft 523 kts 134°
2026-04-22 23:45 26.49660 -108.05190 39140 ft 523 kts 134°
2026-04-22 23:45 26.44893 -107.99117 39163 ft 521 kts 134°
2026-04-22 23:46 26.40077 -107.92992 39172 ft 521 kts 134°
2026-04-22 23:46 26.35317 -107.86948 39146 ft 521 kts 134°
2026-04-22 23:47 26.30528 -107.80874 39163 ft 522 kts 134°
2026-04-22 23:47 26.25728 -107.74795 39107 ft 523 kts 134°
2026-04-22 23:48 26.20915 -107.68707 39169 ft 522 kts 134°
2026-04-22 23:48 26.16098 -107.62622 39213 ft 521 kts 134°
2026-04-22 23:49 26.11310 -107.56583 39228 ft 523 kts 133°
2026-04-22 23:49 26.06491 -107.50513 39207 ft 523 kts 133°
2026-04-22 23:50 26.01647 -107.44419 39210 ft 524 kts 133°
2026-04-22 23:50 25.96839 -107.38379 39185 ft 524 kts 133°
2026-04-22 23:51 25.91993 -107.32299 39220 ft 522 kts 134°
2026-04-22 23:51 25.87185 -107.26274 39223 ft 522 kts 134°
2026-04-22 23:52 25.82368 -107.20246 39240 ft 522 kts 133°
2026-04-22 23:52 25.77532 -107.14203 39259 ft 523 kts 134°
2026-04-22 23:53 25.72705 -107.08179 39280 ft 523 kts 133°
2026-04-22 23:53 25.67862 -107.02143 39281 ft 523 kts 133°
2026-04-22 23:54 25.63037 -106.96137 39334 ft 522 kts 133°
2026-04-22 23:54 25.58222 -106.90151 39331 ft 521 kts 134°
2026-04-22 23:55 25.53400 -106.84165 39379 ft 520 kts 133°
2026-04-22 23:55 25.48580 -106.78190 39382 ft 521 kts 133°
2026-04-22 23:56 25.43720 -106.72173 39386 ft 521 kts 134°
2026-04-22 23:56 25.38920 -106.66236 39354 ft 520 kts 134°
2026-04-22 23:57 25.34080 -106.60259 39354 ft 519 kts 133°
2026-04-22 23:57 25.29282 -106.54340 39380 ft 519 kts 133°
2026-04-22 23:58 25.24449 -106.48387 39376 ft 520 kts 133°
2026-04-22 23:58 25.19613 -106.42439 39395 ft 521 kts 133°
2026-04-22 23:59 25.14799 -106.36523 39427 ft 521 kts 133°
2026-04-22 23:59 25.09927 -106.30544 39426 ft 520 kts 134°
2026-04-23 00:00 25.03493 -106.22660 39452 ft 519 kts 134°
2026-04-23 00:01 24.97848 -106.15756 39461 ft 519 kts 134°
2026-04-23 00:01 24.93012 -106.09852 39468 ft 519 kts 134°
2026-04-23 00:02 24.88195 -106.03977 39439 ft 519 kts 134°
2026-04-23 00:02 24.83342 -105.98067 39443 ft 518 kts 134°
2026-04-23 00:03 24.78495 -105.92170 39440 ft 518 kts 134°
2026-04-23 00:03 24.73692 -105.86334 39440 ft 519 kts 134°
2026-04-23 00:04 24.68832 -105.80437 39445 ft 518 kts 134°
2026-04-23 00:04 24.63999 -105.74579 39447 ft 518 kts 134°
2026-04-23 00:05 24.59136 -105.68693 39446 ft 519 kts 134°
2026-04-23 00:05 24.54286 -105.62829 39451 ft 519 kts 134°
2026-04-23 00:06 24.49460 -105.57001 39454 ft 519 kts 134°
2026-04-23 00:06 24.44597 -105.51136 39454 ft 519 kts 134°
2026-04-23 00:07 24.39738 -105.45283 39445 ft 519 kts 133°
2026-04-23 00:07 24.34876 -105.39433 39448 ft 519 kts 133°
2026-04-23 00:08 24.30006 -105.33582 39448 ft 518 kts 134°
2026-04-23 00:08 24.25150 -105.27754 39463 ft 518 kts 134°
2026-04-23 00:09 24.20258 -105.21890 39463 ft 519 kts 134°
2026-04-23 00:09 24.15398 -105.16072 39477 ft 519 kts 134°
2026-04-23 00:10 24.10523 -105.10243 39488 ft 519 kts 134°
2026-04-23 00:10 24.05631 -105.04400 39489 ft 519 kts 134°
2026-04-23 00:11 24.00754 -104.98583 39491 ft 519 kts 134°
2026-04-23 00:11 23.95863 -104.92754 39471 ft 519 kts 134°
2026-04-23 00:12 23.91008 -104.86977 39463 ft 519 kts 134°
2026-04-23 00:12 23.86092 -104.81134 39433 ft 518 kts 133°
2026-04-23 00:13 23.81231 -104.75362 39439 ft 518 kts 134°
2026-04-23 00:13 23.76352 -104.69576 39430 ft 518 kts 134°
2026-04-23 00:14 23.71477 -104.63802 39415 ft 518 kts 133°
2026-04-23 00:14 23.66586 -104.58015 39405 ft 518 kts 133°
2026-04-23 00:15 23.61710 -104.52253 39381 ft 518 kts 133°
2026-04-23 00:15 23.56799 -104.46458 39376 ft 517 kts 133°
2026-04-23 00:16 23.51941 -104.40730 39390 ft 517 kts 133°
2026-04-23 00:16 23.47081 -104.35007 39409 ft 516 kts 133°
2026-04-23 00:17 23.42153 -104.29210 39413 ft 516 kts 134°
2026-04-23 00:17 23.37303 -104.23511 39424 ft 516 kts 134°
2026-04-23 00:18 23.32436 -104.17800 39425 ft 506 kts 134°
2026-04-23 00:18 23.27706 -104.12257 39417 ft 494 kts 134°
2026-04-23 00:19 23.23048 -104.06805 39425 ft 491 kts 134°
2026-04-23 00:19 23.18417 -104.01391 39420 ft 489 kts 134°
2026-04-23 00:20 23.13754 -103.95945 39399 ft 489 kts 134°
2026-04-23 00:20 23.09139 -103.90560 39393 ft 490 kts 134°
2026-04-23 00:21 23.04507 -103.85159 39386 ft 489 kts 134°
2026-04-23 00:21 22.99848 -103.79726 39389 ft 489 kts 134°
2026-04-23 00:22 22.95229 -103.74348 39413 ft 488 kts 134°
2026-04-23 00:22 22.90596 -103.68958 39408 ft 489 kts 134°
2026-04-23 00:23 22.85943 -103.63550 39394 ft 488 kts 134°
2026-04-23 00:23 22.81313 -103.58175 39386 ft 487 kts 133°
2026-04-23 00:24 22.76665 -103.52784 39384 ft 486 kts 134°
2026-04-23 00:24 22.74379 -103.50136 39379 ft 475 kts 134°
2026-04-23 00:24 22.72135 -103.47536 39389 ft 468 kts 134°
2026-04-23 00:25 22.67730 -103.42437 39402 ft 460 kts 134°
2026-04-23 00:25 22.63390 -103.37419 39415 ft 458 kts 134°
2026-04-23 00:26 22.59016 -103.32367 39416 ft 456 kts 134°
2026-04-23 00:26 22.54678 -103.27362 39410 ft 456 kts 134°
2026-04-23 00:27 22.50337 -103.22357 39402 ft 455 kts 134°
2026-04-23 00:27 22.46014 -103.17379 39390 ft 456 kts 134°
2026-04-23 00:28 22.41666 -103.12376 39391 ft 456 kts 134°
2026-04-23 00:28 22.37316 -103.07377 39375 ft 455 kts 134°
2026-04-23 00:29 22.32998 -103.02419 39370 ft 454 kts 134°
2026-04-23 00:29 22.28657 -102.97440 39383 ft 454 kts 134°
2026-04-23 00:30 22.24332 -102.92487 39406 ft 453 kts 134°
2026-04-23 00:30 22.19998 -102.87530 39421 ft 453 kts 134°
2026-04-23 00:31 22.15694 -102.82613 39430 ft 452 kts 134°
2026-04-23 00:31 22.11359 -102.77665 39431 ft 451 kts 134°
2026-04-23 00:32 22.07068 -102.72772 39421 ft 450 kts 134°
2026-04-23 00:32 22.02765 -102.67870 39418 ft 450 kts 134°
2026-04-23 00:33 21.98445 -102.62953 39416 ft 450 kts 134°
2026-04-23 00:33 21.94154 -102.58073 39387 ft 449 kts 134°
2026-04-23 00:34 21.89838 -102.53170 39366 ft 449 kts 135°
2026-04-23 00:34 21.85560 -102.48315 39322 ft 448 kts 135°
2026-04-23 00:35 21.81272 -102.43453 39293 ft 447 kts 135°
2026-04-23 00:35 21.76957 -102.38565 39261 ft 448 kts 135°
2026-04-23 00:36 21.72678 -102.33722 39252 ft 448 kts 135°
2026-04-23 00:36 21.68454 -102.28833 39256 ft 447 kts 134°
2026-04-23 00:37 21.64265 -102.23887 39258 ft 446 kts 134°
2026-04-23 00:37 21.60076 -102.18947 39292 ft 445 kts 134°
2026-04-23 00:38 21.55900 -102.14029 39298 ft 446 kts 134°
2026-04-23 00:38 21.51739 -102.09133 39313 ft 446 kts 134°
2026-04-23 00:39 21.47561 -102.04222 39334 ft 446 kts 134°
2026-04-23 00:39 21.43358 -101.99287 39359 ft 445 kts 134°
2026-04-23 00:40 21.39180 -101.94385 39354 ft 445 kts 134°
2026-04-23 00:40 21.34998 -101.89481 39363 ft 444 kts 134°
2026-04-23 00:41 21.30835 -101.84606 39362 ft 444 kts 134°
2026-04-23 00:41 21.26686 -101.79749 39379 ft 443 kts 134°
2026-04-23 00:42 21.22616 -101.74985 39394 ft 443 kts 134°
2026-04-23 00:42 21.18469 -101.70135 39368 ft 443 kts 134°
2026-04-23 00:43 21.14292 -101.65253 39331 ft 442 kts 135°
2026-04-23 00:43 21.10139 -101.60404 39290 ft 442 kts 135°
2026-04-23 00:44 21.05978 -101.55551 39258 ft 441 kts 135°
2026-04-23 00:44 21.01847 -101.50737 39237 ft 441 kts 135°
2026-04-23 00:45 20.97768 -101.45808 39233 ft 441 kts 132°
2026-04-23 00:45 20.93812 -101.40800 39253 ft 440 kts 132°
2026-04-23 00:46 20.89875 -101.35824 39273 ft 439 kts 132°
2026-04-23 00:46 20.85910 -101.30817 39306 ft 438 kts 133°
2026-04-23 00:47 20.81946 -101.25819 39325 ft 438 kts 133°
2026-04-23 00:47 20.77983 -101.20825 39331 ft 438 kts 133°
2026-04-23 00:48 20.74039 -101.15861 39349 ft 437 kts 133°
2026-04-23 00:48 20.70117 -101.10930 39346 ft 437 kts 133°
2026-04-23 00:49 20.66145 -101.05941 39343 ft 437 kts 133°
2026-04-23 00:49 20.62193 -101.00992 39339 ft 438 kts 133°
2026-04-23 00:50 20.58486 -100.95767 39330 ft 444 kts 123°
2026-04-23 00:50 20.55243 -100.90144 39324 ft 445 kts 124°
2026-04-23 00:51 20.51998 -100.84538 39328 ft 445 kts 123°
2026-04-23 00:51 20.48725 -100.78893 39310 ft 445 kts 123°
2026-04-23 00:51 20.47088 -100.76074 38836 ft 450 kts 123°
2026-04-23 00:52 20.45443 -100.73243 38282 ft 449 kts 123°
2026-04-23 00:52 20.43813 -100.70440 37730 ft 447 kts 123°
2026-04-23 00:52 20.42182 -100.67636 37182 ft 446 kts 123°
2026-04-23 00:52 20.40549 -100.64831 36628 ft 446 kts 122°
2026-04-23 00:53 20.38895 -100.61991 36046 ft 447 kts 122°
2026-04-23 00:53 20.37273 -100.59208 35467 ft 447 kts 122°
2026-04-23 00:53 20.35615 -100.56366 34885 ft 448 kts 122°
2026-04-23 00:53 20.33978 -100.53559 34308 ft 449 kts 121°
2026-04-23 00:54 20.32702 -100.51391 33842 ft 450 kts 122°
2026-04-23 00:54 20.30894 -100.48695 33274 ft 448 kts 126°
2026-04-23 00:54 20.29009 -100.46030 32708 ft 446 kts 126°
2026-04-23 00:54 20.27157 -100.43405 32109 ft 446 kts 126°
2026-04-23 00:55 20.25290 -100.40758 31538 ft 444 kts 126°
2026-04-23 00:55 20.23446 -100.38145 30961 ft 443 kts 126°
2026-04-23 00:55 20.21608 -100.35540 30377 ft 442 kts 126°
2026-04-23 00:55 20.19762 -100.32925 29801 ft 440 kts 126°
2026-04-23 00:56 20.17926 -100.30323 29217 ft 439 kts 126°
2026-04-23 00:56 20.16107 -100.27747 28648 ft 436 kts 126°
2026-04-23 00:56 20.14286 -100.25169 28083 ft 434 kts 126°
2026-04-23 00:56 20.12481 -100.22613 27510 ft 432 kts 126°
2026-04-23 00:57 20.10687 -100.20074 26942 ft 429 kts 126°
2026-04-23 00:57 20.08904 -100.17551 26367 ft 427 kts 126°
2026-04-23 00:57 20.07133 -100.15045 25807 ft 424 kts 126°
2026-04-23 00:57 20.05363 -100.12541 25261 ft 421 kts 126°
2026-04-23 00:58 20.03616 -100.10072 24708 ft 418 kts 126°
2026-04-23 00:58 20.01862 -100.07594 24162 ft 414 kts 126°
2026-04-23 00:58 20.00132 -100.05151 23623 ft 411 kts 126°
2026-04-23 00:58 19.98428 -100.02743 23077 ft 408 kts 126°
2026-04-23 00:59 19.96617 -100.00432 22549 ft 403 kts 136°
2026-04-23 00:59 19.94373 -99.98674 22025 ft 398 kts 149°
2026-04-23 00:59 19.92019 -99.97163 21511 ft 395 kts 149°
2026-04-23 00:59 19.89691 -99.95662 20999 ft 391 kts 149°
2026-04-23 01:00 19.87362 -99.94160 20486 ft 388 kts 149°
2026-04-23 01:00 19.85059 -99.92673 19985 ft 384 kts 149°
2026-04-23 01:00 19.82783 -99.91205 19488 ft 380 kts 149°
2026-04-23 01:00 19.80524 -99.89747 18996 ft 377 kts 149°
2026-04-23 01:01 19.78269 -99.88293 18353 ft 379 kts 149°
2026-04-23 01:01 19.76012 -99.86838 17718 ft 377 kts 149°
2026-04-23 01:01 19.73691 -99.85632 17155 ft 369 kts 163°
2026-04-23 01:01 19.71176 -99.85142 16584 ft 359 kts 180°
2026-04-23 01:02 19.68733 -99.85423 16296 ft 340 kts 197°
2026-04-23 01:02 19.66582 -99.86317 16212 ft 326 kts 212°
2026-04-23 01:02 19.64715 -99.87681 16195 ft 325 kts 224°
2026-04-23 01:02 19.62940 -99.89193 16183 ft 327 kts 214°
2026-04-23 01:03 19.60857 -99.90179 16187 ft 331 kts 197°
2026-04-23 01:03 19.58601 -99.90730 16166 ft 333 kts 194°
2026-04-23 01:03 19.56293 -99.91266 15908 ft 337 kts 194°
2026-04-23 01:03 19.53991 -99.91538 15462 ft 335 kts 176°
2026-04-23 01:04 19.51796 -99.90792 15021 ft 329 kts 146°
2026-04-23 01:04 19.50128 -99.89151 14545 ft 322 kts 124°
2026-04-23 01:04 19.48936 -99.84811 13443 ft 304 kts 81°
2026-04-23 01:05 19.49456 -99.82701 13219 ft 283 kts 62°
2026-04-23 01:05 19.50434 -99.80983 13159 ft 260 kts 49°
2026-04-23 01:05 19.51539 -99.79542 13176 ft 244 kts 47°
2026-04-23 01:05 19.52612 -99.78159 13154 ft 241 kts 47°
2026-04-23 01:06 19.53669 -99.76792 13144 ft 241 kts 48°
2026-04-23 01:06 19.54479 -99.75255 13136 ft 233 kts 69°
2026-04-23 01:06 19.54624 -99.73592 12917 ft 229 kts 93°
2026-04-23 01:06 19.54348 -99.71940 12648 ft 224 kts 98°
2026-04-23 01:07 19.54061 -99.70360 12426 ft 214 kts 97°
2026-04-23 01:07 19.53789 -99.68847 12180 ft 207 kts 97°
2026-04-23 01:07 19.53519 -99.67332 11986 ft 208 kts 98°
2026-04-23 01:07 19.53033 -99.65894 11768 ft 210 kts 121°
2026-04-23 01:08 19.51940 -99.64866 11722 ft 213 kts 150°
2026-04-23 01:08 19.50569 -99.64226 11548 ft 218 kts 156°
2026-04-23 01:08 19.49183 -99.63603 11273 ft 209 kts 155°
2026-04-23 01:08 19.47882 -99.63013 11027 ft 200 kts 155°
2026-04-23 01:09 19.46628 -99.62447 10776 ft 191 kts 155°
2026-04-23 01:09 19.45425 -99.61902 10523 ft 179 kts 155°
2026-04-23 01:09 19.44349 -99.61417 10298 ft 153 kts 155°
2026-04-23 01:09 19.43371 -99.60974 10130 ft 156 kts 154°
2026-04-23 01:10 19.42375 -99.60522 9930 ft 154 kts 154°
2026-04-23 01:10 19.41379 -99.60072 9746 ft 153 kts 154°
2026-04-23 01:10 19.40404 -99.59630 9547 ft 150 kts 154°
2026-04-23 01:10 19.39435 -99.59195 9333 ft 149 kts 155°
2026-04-23 01:11 19.38482 -99.58762 9120 ft 148 kts 155°
2026-04-23 01:11 19.37546 -99.58337 8941 ft 146 kts 155°
2026-04-23 01:11 19.36610 -99.57913 8763 ft 144 kts 154°
2026-04-23 01:11 19.35689 -99.57497 8591 ft 142 kts 155°
2026-04-23 01:12 19.34815 -99.57104 8512 ft 125 kts 154°
2026-04-23 01:12 19.34162 -99.56808 8511 ft 74 kts 156°
2026-04-23 01:12 19.33811 -99.56647 8510 ft 46 kts 156°
2026-04-23 01:12 19.33562 -99.56538 8510 ft 35 kts 158°
2026-04-23 01:13 19.33445 -99.56491 8510 ft 8 kts 196°
2026-04-23 01:13 19.33400 -99.56557 8510 ft 8 kts 251°
2026-04-23 01:13 19.33382 -99.56603 8509 ft 1 kts 245°
2026-04-23 01:13 19.33372 -99.56627 8509 ft 0 kts 246°
2026-04-23 01:14 19.33351 -99.56644 8509 ft 7 kts 185°
2026-04-23 01:14 19.33283 -99.56616 8509 ft 13 kts 153°
2026-04-23 01:14 19.33203 -99.56580 8509 ft 14 kts 156°
2026-04-23 01:14 19.33135 -99.56558 8509 ft 5 kts 213°
2026-04-23 01:15 19.33115 -99.56614 8509 ft 9 kts 309°
2026-04-23 01:15 19.33176 -99.56645 8509 ft 12 kts 335°
2026-04-23 01:15 19.33256 -99.56680 8509 ft 6 kts 341°
2026-04-23 01:15 19.33321 -99.56697 8509 ft 12 kts 344°
2026-04-23 01:16 19.33386 -99.56734 8509 ft 4 kts 325°
2026-04-23 01:16 19.33427 -99.56769 8509 ft 10 kts 277°
2026-04-23 01:16 19.33390 -99.56859 8509 ft 16 kts 245°
2026-04-23 01:16 19.33372 -99.56959 8509 ft 12 kts 297°
2026-04-23 01:17 19.33399 -99.56979 8509 ft 1 kts 336°
2026-04-23 01:17 19.33405 -99.56982 8509 ft 0 kts 336°